#timestamp,LO_Frequency,Hit,StdDev 
1649818815.5,286046996.6,N
1649818835.4,286046999.6,N
1649818855.2,286046999.6,N
1649818875.1,286046996.8,N
1649818876.0,286046996.8,N
1649818895.8,286046995.0,Y
1649818915.6,286046996.1,P
1649818935.5,286046995.7,N
1649818955.3,286046998.6,N
1649818975.1,286046998.2,N
1649818995.9,286047002.8,N
1649819015.7,286047001.1,N
1649819035.6,286047000.8,N
1649819055.4,286047001.2,N
1649819075.2,286046998.2,N
1649819095.1,286046999.2,N
1649819096.0,286046999.2,N
1649819115.8,286046998.9,N
1649819135.6,286047001.2,N
1649819155.5,286047000.8,N
1649819175.3,286047000.0,N
1649819195.2,286046999.9,N
1649819215.9,286047000.1,N
1649819235.7,286047000.4,N
1649819255.6,286046999.8,N
1649819275.4,286047000.2,N
1649819295.2,286047000.0,N
1649819315.1,286047000.2,N
1649819316.0,286047000.2,N
1649819335.8,286047002.3,N
1649819355.7,286047004.3,N
1649819375.5,286047005.4,Y
1649819395.3,286047003.5,P
1649819415.2,286047003.1,N
1649819435.0,286047003.8,N
1649819435.9,286047003.8,N
1649819455.7,286047002.7,N
1649819475.6,286047002.5,N
1649819495.4,286047001.9,N
1649819515.3,286047000.0,N
1649819535.1,286047000.1,N
1649819536.0,286047000.1,N
1649819555.8,286046999.9,N
1649819575.7,286047002.8,N
1649819595.5,286047000.8,N
1649819615.3,286047003.8,N
1649819635.2,286047002.2,N
1649819655.0,286047000.4,N
1649819655.9,286047000.4,N
1649819675.8,286047000.2,N
1649819695.6,286047001.3,N
1649819715.4,286047001.4,N
1649819735.3,286047001.6,N
1649819755.1,286047002.3,N
1649819775.9,286047004.4,Y
1649819795.7,286046999.7,P
1649819815.5,286047002.5,N
1649819835.4,286047001.6,N
1649819855.2,286046999.7,N
1649819875.0,286047001.2,N
1649819875.9,286047001.2,N
1649819895.8,286046998.6,N
1649819915.6,286046999.9,N
1649819935.5,286047001.9,N
1649819955.3,286047000.6,N
1649819975.1,286046998.1,N
1649819995.9,286047001.1,N
1649820015.7,286047001.2,N
1649820035.5,286047000.1,N
1649820055.4,286047002.7,N
1649820075.2,286047000.3,N
1649820095.1,286047000.7,N
1649820096.0,286047000.7,N
1649820115.8,286047001.9,N
1649820135.6,286047004.0,Y
1649820155.5,286047002.1,P
1649820175.3,286047002.3,P
1649820195.1,286047000.5,N
1649820215.9,286046999.4,N
1649820235.7,286046999.4,N
1649820255.6,286047000.1,N
1649820275.4,286047000.3,N
1649820295.2,286046999.0,N
1649820315.1,286046999.1,N
1649820316.0,286046999.1,N
1649820335.8,286046998.5,N
1649820355.6,286046998.8,N
1649820375.5,286046999.3,N
1649820395.3,286046998.3,N
1649820415.2,286046999.1,N
1649820435.9,286046998.5,N
1649820455.7,286046998.5,N
1649820475.6,286047000.6,N
1649820495.4,286047000.1,N
1649820515.2,286046998.5,N
1649820535.1,286046998.2,N
1649820536.0,286046998.2,N
1649820555.8,286047000.3,N
1649820575.6,286047001.0,N
1649820595.5,286047002.2,N
1649820615.3,286047001.4,N
1649820635.2,286047000.7,N
1649820655.9,286046998.9,N
1649820675.7,286047001.2,N
1649820695.6,286046999.2,N
1649820715.4,286046997.1,N
1649820735.2,286046999.0,N
1649820755.1,286047000.2,N
1649820756.0,286047000.2,N
1649820775.8,286047000.5,N
1649820795.7,286047000.8,N
1649820815.5,286047000.0,N
1649820835.3,286046998.7,N
1649820855.2,286047001.2,N
1649820875.0,286047002.8,N
1649820875.9,286047002.8,N
1649820895.7,286047001.7,N
1649820915.6,286047000.6,N
1649820935.4,286047000.7,N
1649820955.3,286046998.9,N
1649820975.1,286046998.8,N
1649820976.0,286046998.8,N
1649820995.8,286046999.2,N
1649821015.7,286046998.3,N
1649821035.5,286046998.1,N
1649821055.3,286047002.7,N
1649821075.2,286047000.8,N
1649821095.0,286047000.6,N
1649821095.9,286047000.6,N
1649821115.8,286047002.3,N
1649821135.6,286047002.3,N
1649821155.4,286047001.7,N
1649821175.3,286047000.3,N
1649821195.1,286047000.6,N
1649821215.8,286047001.2,N
1649821235.7,286047000.1,N
1649821255.5,286047000.6,N
1649821275.4,286047002.2,N
1649821295.2,286047000.4,N
1649821315.0,286046999.7,N
1649821315.9,286046999.7,N
1649821335.8,286047001.3,N
1649821355.6,286047001.6,N
1649821375.4,286047003.9,N
1649821395.3,286047003.8,N
1649821415.1,286047004.1,N
1649821435.9,286047005.3,Y
1649821455.7,286047005.7,P
1649821475.5,286047003.8,N
1649821495.4,286047002.3,N
1649821515.2,286047000.8,N
1649821535.1,286047000.3,N
1649821536.0,286047000.3,N
1649821555.8,286047002.1,N
1649821575.6,286047001.8,N
1649821595.5,286047002.1,N
1649821615.3,286047000.8,N
1649821635.1,286046999.8,N
1649821655.9,286047002.5,N
1649821675.7,286047000.0,N
1649821695.6,286047002.2,N
1649821715.4,286047001.6,N
1649821735.2,286047002.3,N
1649821755.1,286047000.5,N
1649821756.0,286047000.5,N
1649821775.8,286047002.2,N
1649821795.7,286046999.8,N
1649821815.5,286047001.1,N
1649821835.3,286046998.3,N
1649821855.2,286046998.6,N
1649821875.9,286047000.9,N
1649821895.7,286047000.4,N
1649821915.6,286047001.2,N
1649821935.4,286046999.1,N
1649821955.3,286046999.0,N
1649821975.1,286046998.2,N
1649821976.0,286046998.2,N
1649821995.8,286046998.7,N
1649822015.7,286046999.1,N
1649822035.5,286047000.0,N
1649822055.3,286046998.1,N
1649822075.2,286046999.2,N
1649822095.0,286047001.1,N
1649822095.9,286047001.1,N
1649822115.8,286046999.8,N
1649822135.6,286047002.6,N
1649822155.4,286046999.7,N
1649822175.3,286047000.5,N
1649822195.1,286046999.9,N
1649822215.8,286047000.1,N
1649822235.7,286046999.9,N
1649822255.5,286047002.2,N
1649822275.3,286047002.8,N
1649822295.2,286047000.6,N
1649822315.0,286047000.2,N
1649822315.9,286047000.2,N
1649822335.8,286047000.5,N
1649822355.6,286047000.1,N
1649822375.4,286047002.1,N
1649822395.3,286047002.4,N
